Time,TemperatureF,DewpointF,PressureIn,WindDirection,WindDirectionDegrees,WindSpeedMPH,WindSpeedGustMPH,Humidity,HourlyPrecipIn,Conditions,Clouds,dailyrainin,SoftwareType,DateUTC
2013-02-03 00:06:00,25.3,20.6,29.95,SSW,202,0.0,0.0,82,0.00,,,0.00,WUHU21623XXSP,2013-02-03 05:06:00,
2013-02-03 00:16:00,25.3,20.6,29.95,SSW,202,0.0,0.0,82,0.00,,,0.00,WUHU21623XXSP,2013-02-03 05:16:00,
2013-02-03 00:26:00,25.3,20.9,29.94,SSW,202,0.0,0.0,83,0.00,,,0.00,WUHU21623XXSP,2013-02-03 05:26:00,
2013-02-03 00:36:00,25.3,20.6,29.94,SSW,202,0.0,0.0,82,0.00,,,0.00,WUHU21623XXSP,2013-02-03 05:36:00,
2013-02-03 00:46:00,25.3,20.6,29.94,SSW,202,0.0,0.0,82,0.00,,,0.00,WUHU21623XXSP,2013-02-03 05:46:00,
2013-02-03 00:56:00,25.3,20.6,29.94,SSW,202,0.0,0.0,82,0.00,,,0.00,WUHU21623XXSP,2013-02-03 05:56:00,
2013-02-03 01:06:00,25.3,20.9,29.94,SSW,202,0.0,0.0,83,0.00,,,0.00,WUHU21623XXSP,2013-02-03 06:06:00,
2013-02-03 01:16:00,25.3,20.9,29.93,SSW,202,0.0,0.0,83,0.00,,,0.00,WUHU21623XXSP,2013-02-03 06:16:00,
2013-02-03 01:26:00,25.3,20.9,29.93,SSW,202,0.0,0.0,83,0.00,,,0.00,WUHU21623XXSP,2013-02-03 06:26:00,
2013-02-03 01:36:00,25.3,20.9,29.93,SSW,202,0.0,0.0,83,0.00,,,0.00,WUHU21623XXSP,2013-02-03 06:36:00,
2013-02-03 01:46:00,25.3,20.9,29.93,SSW,202,0.0,0.0,83,0.00,,,0.00,WUHU21623XXSP,2013-02-03 06:46:00,
2013-02-03 01:56:00,25.3,20.9,29.92,SSW,202,0.0,0.0,83,0.00,,,0.00,WUHU21623XXSP,2013-02-03 06:56:00,
2013-02-03 02:06:00,25.3,20.9,29.92,SSW,202,0.0,0.0,83,0.00,,,0.00,WUHU21623XXSP,2013-02-03 07:06:00,
2013-02-03 02:16:00,25.5,21.1,29.92,SSW,202,0.0,0.0,83,0.00,,,0.00,WUHU21623XXSP,2013-02-03 07:16:00,
2013-02-03 02:26:00,25.3,20.9,29.92,SSW,202,0.0,0.0,83,0.00,,,0.00,WUHU21623XXSP,2013-02-03 07:26:00,
2013-02-03 02:36:00,25.3,20.9,29.91,SSW,202,0.0,0.0,83,0.00,,,0.00,WUHU21623XXSP,2013-02-03 07:36:00,
2013-02-03 02:46:00,25.3,20.9,29.91,SSW,202,0.0,0.0,83,0.00,,,0.00,WUHU21623XXSP,2013-02-03 07:46:00,
2013-02-03 02:56:00,25.3,20.9,29.91,SSW,202,0.0,0.0,83,0.00,,,0.00,WUHU21623XXSP,2013-02-03 07:56:00,
2013-02-03 03:06:00,25.3,20.9,29.90,SSW,202,0.0,0.0,83,0.00,,,0.00,WUHU21623XXSP,2013-02-03 08:06:00,
2013-02-03 03:16:00,25.3,20.9,29.90,SSW,202,0.0,0.0,83,0.00,,,0.00,WUHU21623XXSP,2013-02-03 08:16:00,
2013-02-03 03:26:00,25.3,20.9,29.90,SSW,202,0.0,0.0,83,0.00,,,0.00,WUHU21623XXSP,2013-02-03 08:26:00,
2013-02-03 03:36:00,25.3,20.9,29.89,SSW,202,0.0,0.0,83,0.00,,,0.00,WUHU21623XXSP,2013-02-03 08:36:00,
2013-02-03 03:46:00,25.3,20.9,29.89,SSW,202,0.0,0.0,83,0.00,,,0.00,WUHU21623XXSP,2013-02-03 08:46:00,
2013-02-03 03:56:00,25.3,20.9,29.89,SSW,202,0.0,0.0,83,0.00,,,0.00,WUHU21623XXSP,2013-02-03 08:56:00,
2013-02-03 04:06:00,25.3,20.9,29.89,SSW,202,0.0,0.0,83,0.00,,,0.00,WUHU21623XXSP,2013-02-03 09:06:00,
2013-02-03 04:16:00,25.3,20.9,29.89,SSW,202,0.0,0.0,83,0.00,,,0.00,WUHU21623XXSP,2013-02-03 09:16:00,
2013-02-03 04:26:00,25.3,20.9,29.89,SSW,202,0.0,0.0,83,0.00,,,0.00,WUHU21623XXSP,2013-02-03 09:26:00,
2013-02-03 04:36:00,25.3,20.9,29.88,SSW,202,0.0,0.0,83,0.00,,,0.00,WUHU21623XXSP,2013-02-03 09:36:00,
2013-02-03 04:46:00,25.3,20.9,29.88,SSW,202,0.0,0.0,83,0.00,,,0.00,WUHU21623XXSP,2013-02-03 09:46:00,
2013-02-03 04:56:00,25.3,20.9,29.88,SSW,202,0.0,0.0,83,0.00,,,0.00,WUHU21623XXSP,2013-02-03 09:56:00,
2013-02-03 05:06:00,25.2,20.7,29.88,SSW,202,0.0,0.0,83,0.00,,,0.00,WUHU21623XXSP,2013-02-03 10:06:00,
2013-02-03 05:16:00,25.2,20.7,29.88,SSW,202,0.0,0.0,83,0.00,,,0.00,WUHU21623XXSP,2013-02-03 10:16:00,
2013-02-03 05:26:00,25.2,20.7,29.88,SSW,202,0.0,0.0,83,0.00,,,0.00,WUHU21623XXSP,2013-02-03 10:26:00,
2013-02-03 05:36:00,25.0,20.6,29.87,SSW,202,0.0,0.0,83,0.00,,,0.00,WUHU21623XXSP,2013-02-03 10:36:00,
2013-02-03 05:46:00,25.0,20.6,29.88,SSW,202,0.0,0.0,83,0.00,,,0.00,WUHU21623XXSP,2013-02-03 10:46:00,
2013-02-03 05:56:00,25.0,20.6,29.87,SSW,202,0.0,0.0,83,0.00,,,0.00,WUHU21623XXSP,2013-02-03 10:56:00,
2013-02-03 06:06:00,25.0,20.6,29.87,SSW,202,0.0,0.0,83,0.00,,,0.00,WUHU21623XXSP,2013-02-03 11:06:00,
2013-02-03 06:16:00,25.0,20.6,29.87,SSW,202,0.0,0.0,83,0.00,,,0.00,WUHU21623XXSP,2013-02-03 11:16:00,
2013-02-03 06:26:00,25.0,20.6,29.87,SSW,202,0.0,0.0,83,0.00,,,0.00,WUHU21623XXSP,2013-02-03 11:26:00,
2013-02-03 06:36:00,24.6,20.2,29.88,SSW,202,0.0,0.0,83,0.00,,,0.00,WUHU21623XXSP,2013-02-03 11:36:00,
2013-02-03 06:46:00,24.6,20.2,29.88,SSW,202,0.0,0.0,83,0.00,,,0.00,WUHU21623XXSP,2013-02-03 11:46:00,
2013-02-03 06:56:00,24.6,20.2,29.87,SSW,202,0.0,0.0,83,0.00,,,0.00,WUHU21623XXSP,2013-02-03 11:56:00,
2013-02-03 07:06:00,24.6,20.2,29.87,SSW,202,0.0,0.0,83,0.00,,,0.00,WUHU21623XXSP,2013-02-03 12:06:00,
2013-02-03 07:16:00,24.6,20.2,29.87,SSW,202,0.0,0.0,83,0.00,,,0.00,WUHU21623XXSP,2013-02-03 12:16:00,
2013-02-03 07:26:00,24.6,20.2,29.87,SSW,202,0.0,0.0,83,0.00,,,0.00,WUHU21623XXSP,2013-02-03 12:26:00,
2013-02-03 07:36:00,24.6,19.9,29.87,SSW,202,0.0,0.0,82,0.00,,,0.00,WUHU21623XXSP,2013-02-03 12:36:00,
2013-02-03 07:46:00,24.6,19.9,29.87,SW,225,0.0,0.0,82,0.00,,,0.00,WUHU21623XXSP,2013-02-03 12:46:00,
2013-02-03 07:56:00,24.6,19.9,29.87,WSW,247,0.0,0.0,82,0.00,,,0.00,WUHU21623XXSP,2013-02-03 12:56:00,
2013-02-03 08:06:00,24.6,19.9,29.87,SW,225,0.0,0.0,82,0.00,,,0.00,WUHU21623XXSP,2013-02-03 13:06:00,
2013-02-03 08:16:00,24.8,20.1,29.87,SW,225,0.0,0.0,82,0.00,,,0.00,WUHU21623XXSP,2013-02-03 13:16:00,
2013-02-03 08:26:00,25.0,20.3,29.87,SW,225,0.0,0.0,82,0.00,,,0.00,WUHU21623XXSP,2013-02-03 13:26:00,
2013-02-03 08:36:00,25.0,20.3,29.87,SW,225,0.0,0.0,82,0.00,,,0.00,WUHU21623XXSP,2013-02-03 13:36:00,
2013-02-03 08:46:00,25.0,20.3,29.87,SW,225,0.0,0.0,82,0.00,,,0.00,WUHU21623XXSP,2013-02-03 13:46:00,
2013-02-03 08:56:00,25.2,20.4,29.87,SW,225,0.0,0.0,82,0.00,,,0.00,WUHU21623XXSP,2013-02-03 13:56:00,
2013-02-03 09:06:00,25.3,20.6,29.87,SW,225,0.0,0.0,82,0.00,,,0.00,WUHU21623XXSP,2013-02-03 14:06:00,
2013-02-03 09:16:00,25.5,21.1,29.87,SW,225,0.0,0.0,83,0.00,,,0.00,WUHU21623XXSP,2013-02-03 14:16:00,
2013-02-03 09:26:00,26.1,21.6,29.87,SW,225,0.0,0.0,83,0.00,,,0.00,WUHU21623XXSP,2013-02-03 14:26:00,
2013-02-03 09:37:00,26.2,21.7,29.86,SW,225,0.0,0.0,83,0.00,,,0.00,WUHU21623XXSP,2013-02-03 14:37:00,
2013-02-03 09:47:00,26.4,21.6,29.86,SW,225,0.0,0.0,82,0.00,,,0.00,WUHU21623XXSP,2013-02-03 14:47:00,
2013-02-03 09:57:00,26.8,22.0,29.86,SW,225,0.0,0.0,82,0.00,,,0.00,WUHU21623XXSP,2013-02-03 14:57:00,
2013-02-03 10:07:00,27.3,22.5,29.86,SW,225,0.0,0.0,82,0.00,,,0.00,WUHU21623XXSP,2013-02-03 15:07:00,
2013-02-03 10:17:00,27.7,22.6,29.85,SW,225,0.0,0.0,81,0.00,,,0.00,WUHU21623XXSP,2013-02-03 15:17:00,
2013-02-03 10:27:00,28.2,22.8,29.85,SSW,202,0.0,0.0,80,0.00,,,0.00,WUHU21623XXSP,2013-02-03 15:27:00,
2013-02-03 10:37:00,28.6,23.2,29.85,SSW,202,0.0,0.0,80,0.00,,,0.00,WUHU21623XXSP,2013-02-03 15:37:00,
2013-02-03 10:47:00,29.5,23.8,29.84,SSW,202,0.0,0.0,79,0.00,,,0.00,WUHU21623XXSP,2013-02-03 15:47:00,
2013-02-03 10:57:00,30.0,24.0,29.84,SSW,202,0.0,0.0,78,0.00,,,0.00,WUHU21623XXSP,2013-02-03 15:57:00,
2013-02-03 11:07:00,30.0,23.6,29.83,SSW,202,0.0,0.0,77,0.00,,,0.00,WUHU21623XXSP,2013-02-03 16:07:00,
2013-02-03 11:17:00,30.4,23.7,29.83,SSW,202,0.0,0.0,76,0.00,,,0.00,WUHU21623XXSP,2013-02-03 16:17:00,
2013-02-03 11:27:00,30.0,23.3,29.84,SW,225,0.0,0.0,76,0.00,,,0.00,WUHU21623XXSP,2013-02-03 16:27:00,
2013-02-03 11:37:00,30.0,23.6,29.83,SW,225,0.0,0.0,77,0.00,,,0.00,WUHU21623XXSP,2013-02-03 16:37:00,
2013-02-03 11:47:00,30.0,23.6,29.83,SSW,202,0.0,0.0,77,0.00,,,0.00,WUHU21623XXSP,2013-02-03 16:47:00,
2013-02-03 11:57:00,30.2,23.5,29.83,SSW,202,0.0,0.0,76,0.00,,,0.00,WUHU21623XXSP,2013-02-03 16:57:00,
2013-02-03 12:07:00,30.0,23.3,29.82,SSW,202,0.0,0.0,76,0.00,,,0.00,WUHU21623XXSP,2013-02-03 17:07:00,
2013-02-03 12:17:00,30.0,23.3,29.82,SSW,202,0.0,0.0,76,0.00,,,0.00,WUHU21623XXSP,2013-02-03 17:17:00,
2013-02-03 12:27:00,30.6,23.9,29.82,SSW,202,0.0,0.0,76,0.00,,,0.00,WUHU21623XXSP,2013-02-03 17:27:00,
2013-02-03 12:37:00,30.6,23.9,29.81,SSW,202,0.0,0.0,76,0.00,,,0.00,WUHU21623XXSP,2013-02-03 17:37:00,
2013-02-03 12:47:00,30.9,24.2,29.81,SW,225,0.0,0.0,76,0.00,,,0.00,WUHU21623XXSP,2013-02-03 17:47:00,
2013-02-03 12:57:00,31.6,24.6,29.81,SW,225,0.0,0.0,75,0.00,,,0.00,WUHU21623XXSP,2013-02-03 17:57:00,
2013-02-03 13:07:00,32.0,24.8,29.81,SW,225,0.0,0.0,75,0.00,,,0.00,WUHU21623XXSP,2013-02-03 18:07:00,
2013-02-03 13:17:00,31.8,24.5,29.80,WNW,292,0.0,0.0,74,0.00,,,0.00,WUHU21623XXSP,2013-02-03 18:17:00,
2013-02-03 13:27:00,31.8,24.8,29.80,West,270,0.0,0.0,75,0.00,,,0.00,WUHU21623XXSP,2013-02-03 18:27:00,
2013-02-03 13:37:00,31.8,24.5,29.80,West,270,0.0,0.0,74,0.00,,,0.00,WUHU21623XXSP,2013-02-03 18:37:00,
2013-02-03 13:47:00,31.8,24.3,29.81,West,270,0.0,0.0,74,0.00,,,0.00,WUHU21623XXSP,2013-02-03 18:47:00,
2013-02-03 13:57:00,32.2,24.8,29.80,SW,225,0.0,0.0,74,0.00,,,0.00,WUHU21623XXSP,2013-02-03 18:57:00,
2013-02-03 14:07:00,31.8,24.2,29.80,SW,225,0.0,0.0,73,0.00,,,0.00,WUHU21623XXSP,2013-02-03 19:07:00,
2013-02-03 14:17:00,31.8,23.8,29.80,West,270,0.0,0.0,72,0.00,,,0.00,WUHU21623XXSP,2013-02-03 19:17:00,
2013-02-03 14:27:00,31.6,23.6,29.80,West,270,0.0,0.0,72,0.00,,,0.00,WUHU21623XXSP,2013-02-03 19:27:00,
2013-02-03 14:37:00,31.6,23.6,29.80,WSW,247,0.0,0.0,72,0.00,,,0.00,WUHU21623XXSP,2013-02-03 19:37:00,
2013-02-03 14:47:00,31.6,23.3,29.81,NNW,337,0.0,0.0,71,0.00,,,0.00,WUHU21623XXSP,2013-02-03 19:47:00,
2013-02-03 14:57:00,31.8,23.5,29.81,SW,225,0.0,0.0,71,0.00,,,0.00,WUHU21623XXSP,2013-02-03 19:57:00,
2013-02-03 15:07:00,31.3,23.0,29.82,West,270,0.0,0.0,71,0.00,,,0.00,WUHU21623XXSP,2013-02-03 20:07:00,
2013-02-03 15:17:00,30.0,22.4,29.82,WSW,247,0.0,0.0,73,0.00,,,0.00,WUHU21623XXSP,2013-02-03 20:17:00,
2013-02-03 15:27:00,29.8,22.2,29.82,WSW,247,0.0,0.0,73,0.00,,,0.00,WUHU21623XXSP,2013-02-03 20:27:00,
2013-02-03 15:37:00,29.7,21.7,29.82,WSW,247,0.0,0.0,72,0.00,,,0.00,WUHU21623XXSP,2013-02-03 20:37:00,
2013-02-03 15:47:00,29.3,21.4,29.83,West,270,0.0,0.0,72,0.00,,,0.00,WUHU21623XXSP,2013-02-03 20:47:00,
2013-02-03 15:57:00,28.8,20.6,29.83,WNW,292,0.0,0.0,71,0.00,,,0.00,WUHU21623XXSP,2013-02-03 20:57:00,
2013-02-03 16:07:00,28.6,20.4,29.83,WSW,247,0.0,0.0,71,0.00,,,0.00,WUHU21623XXSP,2013-02-03 21:07:00,
2013-02-03 16:17:00,28.0,20.5,29.84,West,270,0.0,0.0,73,0.00,,,0.00,WUHU21623XXSP,2013-02-03 21:17:00,
2013-02-03 16:27:00,27.5,20.3,29.85,WNW,292,0.0,0.0,75,0.00,,,0.00,WUHU21623XXSP,2013-02-03 21:27:00,
2013-02-03 16:37:00,27.1,20.5,29.85,WNW,292,0.0,0.0,76,0.00,,,0.00,WUHU21623XXSP,2013-02-03 21:37:00,
2013-02-03 16:47:00,26.4,19.8,29.85,WNW,292,0.0,0.0,76,0.00,,,0.00,WUHU21623XXSP,2013-02-03 21:47:00,
2013-02-03 16:57:00,25.5,19.6,29.86,WNW,292,0.0,0.0,78,0.00,,,0.00,WUHU21623XXSP,2013-02-03 21:57:00,
2013-02-03 17:07:00,25.2,19.3,29.86,WNW,292,0.0,0.0,78,0.00,,,0.00,WUHU21623XXSP,2013-02-03 22:07:00,
2013-02-03 17:17:00,25.0,19.1,29.87,WNW,292,0.0,0.0,78,0.00,,,0.00,WUHU21623XXSP,2013-02-03 22:17:00,
2013-02-03 17:27:00,24.6,18.8,29.87,SW,225,0.0,0.0,78,0.00,,,0.00,WUHU21623XXSP,2013-02-03 22:27:00,
2013-02-03 17:37:00,24.6,18.8,29.87,WNW,292,0.0,0.0,78,0.00,,,0.00,WUHU21623XXSP,2013-02-03 22:37:00,
2013-02-03 17:47:00,24.6,19.1,29.88,West,270,0.0,0.0,79,0.00,,,0.00,WUHU21623XXSP,2013-02-03 22:47:00,
2013-02-03 17:57:00,24.4,18.9,29.88,WNW,292,0.0,0.0,79,0.00,,,0.00,WUHU21623XXSP,2013-02-03 22:57:00,
2013-02-03 18:07:00,24.1,18.5,29.90,WNW,292,0.0,0.0,79,0.00,,,0.00,WUHU21623XXSP,2013-02-03 23:07:00,
2013-02-03 18:17:00,23.9,18.0,29.90,SW,225,0.0,0.0,78,0.00,,,0.00,WUHU21623XXSP,2013-02-03 23:17:00,
2013-02-03 18:27:00,23.5,17.1,29.90,SW,225,0.0,0.0,76,0.00,,,0.00,WUHU21623XXSP,2013-02-03 23:27:00,
2013-02-03 18:37:00,23.4,16.6,29.91,WSW,247,0.0,0.0,75,0.00,,,0.00,WUHU21623XXSP,2013-02-03 23:37:00,
2013-02-03 18:47:00,23.0,15.6,29.92,SW,225,10.1,10.1,73,0.00,,,0.00,WUHU21623XXSP,2013-02-03 23:47:00,
2013-02-03 18:57:00,22.8,15.2,29.92,WNW,292,7.2,7.4,72,0.00,,,0.00,WUHU21623XXSP,2013-02-03 23:57:00,
2013-02-03 19:07:00,22.6,14.7,29.93,WSW,247,4.3,6.3,71,0.00,,,0.00,WUHU21623XXSP,2013-02-04 00:07:00,
2013-02-03 19:17:00,22.3,14.6,29.94,WSW,247,6.5,6.5,72,0.00,,,0.00,WUHU21623XXSP,2013-02-04 00:17:00,
2013-02-03 19:27:00,22.3,14.6,29.95,SSW,202,9.2,9.2,72,0.00,,,0.00,WUHU21623XXSP,2013-02-04 00:27:00,
2013-02-03 19:37:00,22.1,14.4,29.96,SW,225,3.1,6.7,72,0.00,,,0.00,WUHU21623XXSP,2013-02-04 00:37:00,
2013-02-03 19:47:00,21.9,14.3,29.96,WSW,247,6.7,6.7,72,0.00,,,0.00,WUHU21623XXSP,2013-02-04 00:47:00,
2013-02-03 19:57:00,21.7,14.7,29.96,WSW,247,5.6,5.6,74,0.00,,,0.00,WUHU21623XXSP,2013-02-04 00:57:00,
2013-02-03 20:07:00,21.6,14.8,29.96,SW,225,1.8,2.9,75,0.00,,,0.00,WUHU21623XXSP,2013-02-04 01:07:00,
2013-02-03 20:17:00,21.4,14.9,29.96,WNW,292,7.4,7.4,76,0.00,,,0.00,WUHU21623XXSP,2013-02-04 01:17:00,
2013-02-03 20:27:00,21.4,14.9,29.97,SW,225,1.8,6.7,76,0.00,,,0.00,WUHU21623XXSP,2013-02-04 01:27:00,
2013-02-03 20:37:00,21.4,14.9,29.97,SW,225,2.0,3.4,76,0.00,,,0.00,WUHU21623XXSP,2013-02-04 01:37:00,
2013-02-03 20:47:00,21.4,14.9,29.97,WSW,247,3.6,3.6,76,0.00,,,0.00,WUHU21623XXSP,2013-02-04 01:47:00,
2013-02-03 20:57:00,21.0,14.3,29.98,SW,225,5.6,8.1,74,0.00,,,0.00,WUHU21623XXSP,2013-02-04 01:57:00,
2013-02-03 21:07:00,21.0,13.7,29.99,SW,225,6.5,7.8,73,0.00,,,0.00,WUHU21623XXSP,2013-02-04 02:07:00,
2013-02-03 21:17:00,20.7,12.7,30.00,SW,225,6.0,8.7,71,0.00,,,0.00,WUHU21623XXSP,2013-02-04 02:17:00,
2013-02-03 21:27:00,20.3,12.3,30.00,WNW,292,2.9,10.7,71,0.00,,,0.00,WUHU21623XXSP,2013-02-04 02:27:00,
2013-02-03 21:37:00,20.1,11.8,30.00,SW,225,5.8,6.9,70,0.00,,,0.00,WUHU21623XXSP,2013-02-04 02:37:00,
2013-02-03 21:47:00,19.9,11.7,30.01,SW,225,7.6,8.7,70,0.00,,,0.00,WUHU21623XXSP,2013-02-04 02:47:00,
2013-02-03 21:57:00,19.8,11.5,30.02,WSW,247,4.5,5.8,70,0.00,,,0.00,WUHU21623XXSP,2013-02-04 02:57:00,
2013-02-03 22:07:00,19.6,11.3,30.02,WSW,247,1.1,5.1,70,0.00,,,0.00,WUHU21623XXSP,2013-02-04 03:07:00,
2013-02-03 22:17:00,19.6,11.3,30.02,WSW,247,4.0,5.4,70,0.00,,,0.00,WUHU21623XXSP,2013-02-04 03:17:00,
2013-02-03 22:27:00,19.6,11.3,30.02,West,270,1.3,4.9,70,0.00,,,0.00,WUHU21623XXSP,2013-02-04 03:27:00,
2013-02-03 22:37:00,19.6,11.6,30.03,West,270,1.8,2.7,71,0.00,,,0.00,WUHU21623XXSP,2013-02-04 03:37:00,
2013-02-03 22:47:00,19.6,11.3,30.03,West,270,4.9,7.4,70,0.00,,,0.00,WUHU21623XXSP,2013-02-04 03:47:00,
2013-02-03 22:57:00,19.4,11.1,30.03,SW,225,5.1,5.8,70,0.00,,,0.00,WUHU21623XXSP,2013-02-04 03:57:00,
2013-02-03 23:07:00,19.4,11.4,30.03,SW,225,2.7,5.1,71,0.00,,,0.00,WUHU21623XXSP,2013-02-04 04:07:00,
2013-02-03 23:17:00,19.4,11.4,30.03,WSW,247,2.9,2.9,71,0.00,,,0.00,WUHU21623XXSP,2013-02-04 04:17:00,
2013-02-03 23:27:00,19.4,11.4,30.03,West,270,1.1,2.9,71,0.00,,,0.00,WUHU21623XXSP,2013-02-04 04:27:00,
2013-02-03 23:37:00,19.2,11.2,30.03,WSW,247,0.0,1.8,71,0.00,,,0.00,WUHU21623XXSP,2013-02-04 04:37:00,
2013-02-03 23:47:00,19.2,11.2,30.03,SSW,202,0.0,0.0,71,0.00,,,0.00,WUHU21623XXSP,2013-02-04 04:47:00,
2013-02-03 23:57:00,19.2,11.6,30.03,West,270,1.8,2.5,72,0.00,,,0.00,WUHU21623XXSP,2013-02-04 04:57:00,